Retour au catalogue

STARLINK-37927

ActifCommunicationsSSO
NORAD 69556·PAYLOAD·🇺🇸 United States

Lancé Jun 15, 2026 depuis Vandenberg Space Force Base

Loading…

Prochains Passages (prochaines 24 heures)

TLE

FraisSource: CelesTrak SupGP

Époque: Sep 15, 2026, 03:11 UTC

1 69556C 26135L   26258.13312500 -.00032725  00000+0 -10158-2 0  2581
2 69556  97.2834 285.8911 0000902 102.1337  33.8792 15.33458940    13

Suivez STARLINK-37927 en temps réel avec AllMySat

Download on the App Store